Wind_Speed
25 25 24 24 22 22 20 20 21 19 17 16 16 15 14 14 14 12 5 3 5 7 26 28 13 6 10 6 3 10 5 8 6 6 1 2 2 5 3 2 3 4 3 3 4 4 4 21 8 7 4 16 21 21
28 27 25 23 21 20 19 16 16 16 14 16 14 14 14 12 13 11 11 7 7 12 18 22 23 23 23 15 12 7 0 1 1 2 4 3 4 4 4 3 5 4 5 5 4 3 8 17 17 25 23 27 29 26
24 21 22 23 20 18 18 17 16 15 13 14 13 12 10 11 13 10 12 3 6 11 23 13 8 1 11 10 7 4 1 6 5 7 1 3 3 2 3 2 5 2 4 4 7 3 4 10 24 26 28 29 28 28
23 22 21 21 21 17 15 15 13 12 11 13 14 12 9 9 11 10 11 4 5 7 4 7 4 1 5 9 11 12 11 3 11 10 2 2 2 4 0 4 3 4 4 7 1 3 5 12 18 20 17 14 12 9
22 20 17 20 17 17 15 12 13 11 10 10 8 8 7 8 9 9 10 7 6 4 4 13 17 9 11 9 8 6 4 3 4 2 0 2 3 4 3 4 4 3 6 5 4 6 8 5 13 19 23 18 12 10
19 19 16 17 14 10 10 10 10 9 8 7 7 8 7 7 6 4 3 8 5 5 5 3 6 8 7 2 3 7 6 5 5 3 3 2 3 4 3 1 7 10 13 25 11 16 15 16 17 15 18 13 10 12
16 15 12 11 9 11 10 8 8 7 7 8 8 7 6 7 6 7 4 5 8 6 3 5 5 4 6 3 3 1 6 3 3 1 1 1 3 5 3 3 3 13 16 21 25 22 20 14 12 13 13 15 12 10
15 13 11 9 10 9 8 5 7 7 7 6 6 5 6 6 6 9 1 2 5 4 4 3 4 3 7 3 3 3 1 2 3 1 1 3 3 5 4 5 24 29 31 29 27 25 24 19 15 15 12 11 12 13
7 8 9 8 7 5 6 5 6 7 5 4 4 4 1 3 3 1 4 5 5 5 3 3 2 3 5 4 4 5 3 0 1 1 2 3 4 7 2 14 28 25 21 20 19 17 15 16 14 13 13 13 15 16
5 4 6 6 5 4 3 3 4 6 4 3 1 1 2 1 3 4 4 2 3 4 5 3 5 3 6 6 2 1 2 2 2 4 8 5 3 18 26 27 26 24 22 16 16 17 12 11 10 9 8 9 13 17
2 2 5 6 6 3 5 3 6 6 3 2 2 3 2 3 2 2 3 4 4 3 5 6 7 2 8 3 1 2 1 1 2 2 4 3 3 8 19 20 19 16 14 12 9 5 3 5 9 13 14 14 12 11
1 5 3 6 4 6 5 6 7 7 3 2 4 3 2 1 3 1 3 4 3 4 4 3 4 1 3 3 3 4 1 3 1 3 4 3 1 12 15 16 15 13 12 10 7 7 6 6 6 7 8 10 11 12
9 11 9 6 8 8 8 8 12 9 1 4 3 3 3 2 4 2 2 3 2 5 2 4 1 2 4 7 3 3 4 2 3 4 3 2 6 11 13 12 13 13 12 10 11 10 11 8 9 13 16 14 10 11
15 13 12 10 7 9 7 11 7 5 2 2 3 5 2 3 3 3 1 1 8 5 15 10 6 3 4 4 2 3 2 2 4 4 2 0 9 12 11 12 14 14 12 13 14 14 12 12 15 16 14 12 11 12
14 13 11 10 8 8 11 8 2 2 3 2 3 4 2 9 5 4 1 4 14 16 12 6 5 5 3 3 2 2 2 4 4 3 2 4 9 10 8 9 13 14 14 14 15 19 15 15 16 13 14 7 9 10
13 13 12 11 11 15 11 8 4 8 5 4 4 4 12 9 11 8 12 14 18 12 8 5 3 4 4 2 4 4 3 5 2 1 5 6 7 5 4 4 8 10 11 12 14 15 15 16 17 16 14 11 10 7
14 16 11 12 14 9 6 4 5 4 5 4 3 7 4 7 8 9 11 16 12 11 3 3 3 1 1 3 4 4 3 2 3 4 5 7 5 5 7 8 11 12 13 12 13 14 14 16 18 16 14 10 8 6
17 14 12 12 8 4 6 6 4 3 1 2 3 8 4 4 9 13 15 15 9 5 5 2 3 4 3 4 3 2 8 9 6 7 6 9 6 6 7 9 11 13 14 12 10 12 13 16 16 13 11 9 9 8
13 12 11 7 7 5 4 4 3 4 3 6 6 8 6 3 9 9 9 11 10 8 3 4 5 3 2 4 3 5 4 5 9 11 3 5 5 7 7 10 11 12 13 12 13 10 10 14 17 12 12 11 11 8
10 8 9 10 9 4 4 4 3 4 5 9 10 13 5 4 6 7 6 8 9 4 5 3 2 3 4 3 4 2 4 8 10 10 5 4 4 10 7 12 11 12 13 13 13 13 14 14 8 4 6 7 9 6
5 6 8 9 6 7 3 5 4 5 6 6 13 9 4 5 6 7 7 7 2 2 2 5 8 6 4 2 5 6 5 8 9 8 11 9 8 12 13 10 11 15 20 21 20 15 9 10 4 10 8 10 12 10
7 8 8 7 3 3 1 2 4 6 5 8 8 9 4 5 6 7 10 3 4 3 1 2 7 9 12 12 13 10 10 10 7 8 7 12 14 13 12 15 17 15 15 14 8 6 5 7 9 6 12 12 12 14
7 6 4 3 2 3 2 4 2 4 3 6 7 2 3 3 6 10 2 3 5 8 10 13 13 12 11 8 4 2 4 6 7 5 4 3 9 14 19 22 21 17 15 16 5 6 8 8 9 11 13 14 14 15
6 2 2 2 1 2 3 2 2 3 3 3 2 3 3 4 6 3 2 4 7 5 3 2 4 2 3 1 4 4 6 6 9 11 11 11 11 12 12 12 12 12 14 11 9 9 9 8 8 8 9 10 11 12
2 3 2 2 2 1 1 1 1 0 1 1 1 3 3 2 1 1 1 2 5 6 4 3 2 5 9 11 9 10 12 8 4 13 14 8 7 4 5 7 9 11 14 16 17 17 17 17 17 17 16 16 16 16
3 6 10 8 7 4 5 3 3 4 2 3 5 3 5 2 2 2 2 4 10 7 6 8 10 12 14 7 7 13 11 9 7 8 13 11 8 8 8 10 13 16 20 20 21 18 15 16 17 18 19 20 20 21
4 6 10 10 3 6 7 7 7 4 4 5 4 6 4 2 2 4 4 13 12 7 8 9 8 8 9 14 16 13 7 6 11 9 7 10 11 12 11 12 15 18 22 25 26 14 15 17 18 18 18 18 16 13
9 3 2 11 10 10 2 3 4 3 1 2 4 2 3 3 3 10 6 7 10 7 14 15 18 17 15 15 14 12 11 11 11 11 12 9 7 12 14 17 21 25 28 28 12 13 15 17 18 16 17 16 18 20
4 11 8 7 6 3 3 2 3 7 15 12 5 3 4 8 11 9 15 15 15 16 14 14 14 12 13 13 12 14 17 20 21 18 14 11 12 14 18 21 26 29 20 11 11 14 18 14 17 18 19 18 17 14
5 15 8 7 4 4 10 5 14 14 13 16 18 19 19 17 15 11 11 11 12 11 10 10 9 12 12 13 15 16 18 17 15 15 13 12 13 16 21 23 23 18 14 12 16 16 14 17 17 18 18 17 19 18
5 4 3 5 5 4 7 4 9 9 15 15 16 19 18 17 15 13 13 12 10 5 6 8 9 12 13 15 17 19 19 17 13 12 13 16 20 19 17 20 21 15 15 18 21 18 17 18 18 16 15 16 17 18
3 2 2 4 7 9 7 3 2 10 15 15 15 13 4 5 8 12 10 9 6 8 11 11 11 12 13 16 19 15 14 13 14 18 21 18 15 20 22 20 13 11 14 16 14 15 17 19 19 19 18 15 13 13
7 22 18 10 4 3 1 2 3 2 5 4 5 5 6 1 5 13 13 10 10 9 9 9 10 15 19 19 15 13 12 15 19 21 13 16 17 14 17 19 18 17 15 14 15 18 20 21 22 23 23 23 20 18
Wind_Direction
295 295 297 295 290 289 288 279 280 282 284 285 288 282 285 290 299 298 215 236 318 278 279 282 272 304 324 324 320 315 350 9 22 18 319 282 186 228 107 341 108 76 54 11 1 55 27 347 313 84 204 80 78 71
296 294 289 291 292 285 288 283 283 270 281 282 284 282 282 280 291 289 278 219 291 267 265 287 274 265 269 259 287 301 182 63 117 357 339 359 323 12 166 96 335 44 154 147 91 153 277 7 78 81 91 78 74 72
296 300 299 283 286 290 283 283 282 281 275 281 280 285 278 273 285 275 277 274 327 295 298 284 305 283 209 214 242 274 340 10 338 338 227 238 291 44 33 323 123 80 108 107 116 241 310 55 73 69 73 67 65 63
291 292 293 302 278 277 286 280 276 276 271 272 276 284 283 274 285 268 266 227 270 290 281 288 322 242 233 227 238 246 250 316 305 302 252 254 267 30 335 190 71 158 151 103 279 100 70 76 85 82 73 63 38 44
284 283 290 297 293 262 279 289 265 269 276 273 271 285 277 286 286 272 264 225 184 285 293 287 306 282 239 249 226 205 196 245 282 298 87 262 282 8 356 35 7 1 158 153 194 124 107 44 88 86 82 78 57 49
282 279 283 298 282 262 277 275 268 249 260 263 264 290 276 292 284 306 127 162 206 224 264 294 305 259 238 231 190 203 208 251 233 246 244 308 354 85 77 86 307 78 115 115 140 148 107 81 68 71 76 75 72 37
279 281 271 273 280 273 260 276 240 234 244 251 261 286 280 289 258 215 229 162 206 232 254 294 287 276 214 246 271 164 190 214 236 235 241 240 339 80 48 80 296 79 86 131 115 94 89 80 64 60 55 48 55 51
281 265 256 255 273 269 249 249 224 231 236 254 261 277 287 275 259 237 353 278 216 252 244 276 273 300 194 224 257 207 169 218 210 213 333 125 4 59 78 26 105 91 89 86 83 83 79 77 69 51 46 33 28 19
287 268 243 251 276 235 219 228 240 225 231 239 260 291 290 203 207 257 273 272 266 248 276 277 278 290 183 248 229 179 211 110 172 111 270 104 6 28 64 82 78 81 86 85 82 74 63 52 38 23 6 356 350 343
314 277 220 233 203 186 195 182 199 189 200 214 233 354 234 218 297 285 250 234 224 219 233 242 269 285 327 360 351 107 177 169 141 235 92 80 69 42 56 64 67 66 65 65 60 37 19 8 360 353 348 332 326 323
303 131 137 151 164 160 146 145 148 149 149 72 340 279 284 189 230 254 259 208 213 244 221 238 245 244 4 61 313 26 176 323 80 272 111 86 42 7 43 48 51 58 61 61 63 58 9 331 326 323 315 308 310 311
162 173 146 138 175 186 154 137 145 124 39 358 314 333 29 292 253 262 248 268 212 234 218 208 245 220 10 358 51 3 56 26 79 305 77 79 49 18 24 25 32 35 41 49 41 19 10 2 347 341 329 313 315 310
90 115 131 131 137 144 140 144 140 64 129 346 7 324 334 269 25 262 284 292 286 312 155 174 56 42 16 9 49 49 42 292 304 51 66 72 31 22 11 20 21 14 16 15 5 1 359 5 351 336 326 325 316 343
113 101 102 104 129 138 128 148 114 75 26 353 313 336 134 295 250 256 99 317 307 17 69 89 50 54 4 29 18 54 285 30 46 54 76 279 26 21 26 28 19 12 11 21 12 4 2 0 355 357 6 3 342 334
98 102 100 95 97 112 125 120 94 5 350 348 327 340 322 319 325 325 167 32 3 15 39 48 39 29 353 39 11 24 33 63 44 65 34 42 32 26 36 50 43 47 39 35 24 31 33 18 8 5 8 19 359 359
102 103 93 96 110 130 120 93 73 360 9 3 360 342 343 21 356 359 18 26 11 2 11 53 52 38 5 35 20 5 45 50 67 23 30 13 4 13 23 18 20 24 17 10 11 11 2 360 5 9 12 4 359 351
109 98 100 109 119 115 98 30 359 356 6 6 317 18 351 297 291 345 23 25 28 43 13 31 53 360 2 24 43 32 71 158 83 41 5 332 330 4 8 9 8 6 5 3 5 7 0 359 358 357 356 354 351 359
105 108 113 117 112 67 6 6 5 335 289 5 31 342 28 355 12 35 41 29 35 35 14 26 320 14 42 34 50 21 50 68 50 9 351 7 14 3 4 3 3 353 337 320 327 335 342 344 336 345 359 2 12 18
98 103 102 71 11 4 355 3 355 342 338 350 328 300 345 346 15 45 46 43 42 38 33 18 50 44 27 56 96 37 23 21 350 342 337 358 6 8 357 349 344 341 333 316 327 339 337 337 328 312 318 340 347 354
81 64 26 7 14 32 349 349 349 333 351 335 357 358 360 13 22 8 50 29 20 32 27 39 85 95 111 74 14 359 337 331 329 334 334 340 336 337 340 341 347 340 319 312 323 322 331 343 360 29 339 318 333 292
16 16 17 17 31 35 23 348 358 1 340 347 3 0 341 356 9 34 13 5 343 60 28 60 87 75 77 3 337 330 316 327 324 310 315 324 316 319 324 330 332 334 335 337 318 298 312 329 346 334 341 353 341 326
348 341 346 355 11 324 68 348 319 333 336 326 346 354 8 10 6 8 340 341 333 3 77 320 297 298 298 299 315 307 304 313 305 323 330 317 322 333 347 349 342 345 337 333 288 292 327 327 341 344 334 332 333 325
310 321 309 316 337 342 323 356 3 2 2 331 346 12 8 349 347 342 326 307 279 269 275 272 281 285 289 306 335 341 254 288 308 316 311 344 322 313 319 327 334 349 349 348 309 321 346 351 351 335 330 328 318 318
291 294 316 341 311 293 342 3 2 346 349 17 28 333 327 327 354 17 310 278 285 298 279 198 192 172 136 81 165 217 288 317 320 332 334 318 321 9 41 74 84 56 48 49 52 34 24 12 353 333 326 327 330 334
275 238 185 242 240 284 286 252 261 350 265 113 329 270 234 249 286 242 275 249 185 169 167 246 320 325 320 324 336 343 350 342 341 29 42 65 50 60 36 30 16 3 360 353 350 342 339 333 329 324 320 321 327 335
256 211 197 198 163 176 225 180 213 220 198 212 230 194 160 213 291 323 234 235 238 261 282 289 306 334 347 326 1 21 5 354 111 60 46 38 42 29 16 357 349 351 354 350 345 342 348 344 340 337 333 328 325 325
265 225 221 206 184 171 204 215 188 201 196 217 184 172 193 85 59 269 337 68 43 74 72 87 88 108 92 53 60 58 65 33 25 37 32 26 16 9 7 3 357 348 339 338 340 346 351 349 351 350 346 342 334 334
252 284 122 161 193 223 128 145 183 179 181 143 147 57 62 127 255 357 27 48 42 84 70 95 94 81 69 59 49 41 35 24 17 4 355 3 350 342 337 335 334 332 328 327 338 334 334 337 345 344 347 358 343 336
312 12 5 5 11 96 90 75 58 89 105 101 99 107 156 139 137 95 75 79 70 68 62 57 52 32 20 13 11 6 357 353 351 356 354 347 337 332 326 328 329 333 337 342 335 330 332 335 341 333 333 330 341 338
333 0 357 18 44 1 39 124 125 128 121 122 119 112 105 103 89 82 81 75 58 61 63 47 25 7 8 357 351 349 349 356 350 349 349 346 335 325 327 331 337 344 343 332 331 332 341 339 338 338 334 328 322 325
309 23 26 3 338 6 42 104 134 143 147 149 142 123 117 107 91 77 65 63 75 77 32 31 20 14 4 358 356 352 349 350 342 335 333 330 334 335 332 333 334 324 315 316 321 329 326 324 323 332 348 332 320 322
273 267 236 140 238 291 360 248 107 105 134 143 128 125 154 134 91 52 44 42 30 44 44 31 20 20 357 348 347 351 339 328 329 334 338 347 347 340 339 338 340 336 331 329 321 309 306 311 318 324 325 335 329 314
4 52 358 324 314 272 297 55 46 189 191 88 63 105 122 92 8 65 52 62 62 53 41 17 359 343 345 349 349 346 330 330 337 335 336 338 344 351 337 333 330 324 323 324 323 328 329 328 327 327 325 328 325 318
Height
1480 1478 1476 1474 1473 1472 1470 1470 1470 1470 1469 1469 1468 1468 1466 1465 1464 1462 1460 1461 1461 1457 1444 1441 1441 1439 1436 1434 1432 1418 1414 1413 1408 1418 1419 1412 1410 1405 1406 1409 1414 1420 1426 1438 1433 1430 1440 1415 1408 1422 1429 1424 1424 1426
1474 1470 1469 1468 1467 1465 1464 1464 1464 1464 1464 1464 1464 1463 1462 1461 1461 1459 1457 1458 1457 1455 1443 1439 1436 1434 1435 1433 1433 1427 1425 1426 1428 1428 1421 1417 1412 1405 1405 1423 1413 1423 1427 1437 1444 1451 1436 1428 1425 1425 1424 1427 1429 1432
1467 1464 1462 1461 1461 1459 1459 1459 1459 1459 1459 1459 1459 1458 1458 1457 1457 1456 1454 1455 1453 1450 1439 1432 1427 1428 1429 1428 1430 1428 1424 1423 1422 1426 1421 1425 1415 1408 1415 1416 1413 1411 1415 1429 1437 1442 1439 1433 1426 1429 1429 1430 1432 1441
1460 1458 1457 1456 1454 1454 1454 1454 1454 1454 1455 1455 1455 1455 1454 1454 1453 1452 1451 1453 1453 1452 1446 1430 1427 1427 1427 1427 1427 1426 1425 1424 1423 1422 1421 1423 1421 1408 1416 1415 1408 1411 1419 1421 1441 1431 1434 1436 1433 1432 1434 1432 1438 1443
1452 1452 1451 1451 1448 1449 1449 1449 1450 1451 1451 1451 1452 1451 1451 1450 1449 1448 1448 1449 1451 1454 1447 1433 1425 1422 1422 1423 1423 1423 1423 1425 1426 1424 1424 1424 1417 1413 1412 1411 1417 1414 1420 1429 1437 1429 1435 1441 1438 1436 1431 1436 1443 1447
1446 1445 1446 1446 1444 1445 1446 1445 1446 1447 1448 1448 1449 1449 1448 1448 1447 1447 1446 1448 1449 1449 1448 1438 1424 1420 1421 1421 1421 1420 1421 1424 1425 1423 1421 1417 1416 1417 1429 1433 1423 1416 1417 1419 1433 1438 1438 1437 1438 1440 1438 1438 1438 1443
1440 1440 1441 1442 1442 1442 1442 1443 1443 1444 1445 1446 1446 1446 1446 1446 1446 1446 1445 1445 1446 1447 1445 1438 1425 1417 1417 1418 1418 1417 1419 1420 1421 1419 1418 1417 1416 1419 1428 1433 1428 1424 1421 1433 1434 1437 1440 1439 1443 1441 1440 1442 1439 1440
1434 1435 1437 1439 1439 1439 1440 1441 1441 1442 1443 1444 1445 1445 1444 1444 1444 1443 1443 1443 1444 1444 1444 1439 1426 1419 1417 1416 1416 1415 1416 1418 1417 1418 1418 1419 1419 1421 1436 1435 1434 1433 1434 1438 1442 1441 1440 1440 1442 1443 1443 1442 1440 1440
1432 1432 1434 1436 1437 1437 1438 1439 1440 1441 1443 1443 1444 1443 1443 1443 1443 1443 1443 1443 1443 1446 1441 1436 1430 1423 1416 1415 1414 1415 1416 1419 1417 1418 1418 1421 1431 1444 1441 1438 1437 1437 1439 1442 1439 1440 1441 1443 1445 1444 1442 1441 1440 1438
1431 1430 1432 1434 1436 1437 1438 1439 1440 1441 1443 1443 1444 1444 1443 1443 1443 1443 1443 1442 1441 1439 1438 1434 1427 1424 1419 1415 1414 1415 1415 1418 1422 1418 1420 1434 1450 1448 1446 1444 1443 1443 1442 1442 1441 1444 1445 1446 1447 1447 1446 1444 1443 1441
1430 1431 1432 1434 1436 1438 1439 1440 1442 1443 1444 1445 1444 1443 1443 1443 1443 1442 1440 1440 1437 1435 1431 1427 1424 1423 1419 1418 1418 1416 1419 1418 1421 1420 1424 1445 1454 1453 1451 1449 1448 1447 1447 1447 1449 1450 1450 1448 1446 1443 1442 1441 1440 1439
1431 1432 1434 1436 1437 1439 1441 1442 1444 1445 1446 1446 1445 1444 1443 1443 1442 1442 1440 1435 1433 1429 1423 1422 1420 1420 1420 1419 1418 1418 1419 1419 1422 1416 1424 1451 1456 1454 1451 1450 1449 1449 1449 1448 1448 1448 1447 1446 1444 1443 1442 1441 1440 1439
1433 1434 1436 1438 1439 1441 1443 1445 1446 1447 1447 1446 1447 1446 1445 1444 1449 1441 1436 1432 1429 1422 1420 1420 1421 1421 1421 1420 1419 1421 1423 1425 1419 1427 1446 1454 1455 1453 1451 1449 1448 1447 1446 1445 1445 1443 1442 1440 1439 1437 1434 1433 1432 1431
1438 1440 1441 1442 1443 1444 1446 1447 1449 1450 1449 1449 1448 1447 1447 1445 1440 1436 1434 1433 1428 1425 1421 1421 1422 1424 1424 1423 1424 1426 1425 1423 1429 1448 1453 1455 1454 1453 1451 1450 1448 1446 1445 1445 1443 1441 1439 1437 1434 1431 1430 1428 1427 1426
1445 1446 1446 1447 1448 1448 1449 1451 1451 1451 1451 1450 1449 1451 1445 1443 1439 1436 1433 1432 1428 1426 1424 1425 1427 1428 1428 1428 1429 1429 1428 1437 1448 1453 1453 1454 1454 1453 1452 1452 1451 1450 1448 1446 1444 1441 1439 1437 1435 1433 1430 1428 1427 1425
1451 1452 1451 1452 1452 1453 1454 1454 1454 1453 1452 1453 1452 1451 1448 1445 1441 1437 1436 1434 1433 1430 1429 1430 1433 1436 1435 1436 1434 1434 1436 1451 1457 1456 1455 1455 1454 1454 1454 1453 1451 1448 1447 1445 1443 1441 1438 1436 1434 1431 1429 1428 1427 1426
1456 1456 1457 1457 1458 1459 1459 1458 1458 1457 1457 1456 1456 1454 1451 1449 1447 1444 1441 1439 1437 1435 1438 1436 1439 1440 1439 1439 1442 1447 1454 1455 1455 1455 1455 1455 1454 1453 1452 1450 1448 1446 1445 1443 1441 1440 1438 1436 1433 1432 1432 1430 1428 1427
1460 1461 1462 1463 1463 1462 1461 1460 1460 1460 1459 1458 1458 1455 1454 1452 1449 1447 1446 1443 1442 1441 1441 1443 1443 1443 1446 1447 1456 1457 1456 1456 1456 1455 1454 1452 1452 1451 1451 1450 1449 1447 1445 1443 1442 1440 1438 1437 1435 1434 1432 1430 1428 1426
1467 1467 1467 1468 1466 1465 1464 1464 1464 1462 1460 1460 1458 1455 1454 1453 1452 1451 1450 1448 1447 1446 1445 1446 1449 1455 1457 1456 1457 1457 1457 1456 1455 1453 1452 1452 1451 1450 1449 1447 1446 1445 1444 1442 1440 1439 1437 1435 1434 1432 1432 1430 1428 1426
1472 1472 1471 1469 1468 1467 1466 1466 1466 1465 1463 1463 1459 1458 1456 1455 1455 1454 1453 1452 1450 1449 1450 1451 1454 1455 1456 1456 1456 1456 1455 1454 1453 1451 1451 1450 1450 1449 1448 1447 1445 1444 1442 1440 1438 1437 1435 1433 1430 1429 1428 1428 1426 1425
1475 1474 1473 1471 1470 1470 1470 1469 1468 1467 1466 1464 1463 1460 1459 1457 1456 1455 1454 1453 1452 1452 1453 1454 1456 1456 1457 1456 1456 1455 1454 1453 1452 1452 1450 1448 1448 1447 1446 1444 1443 1441 1439 1437 1436 1434 1434 1432 1430 1428 1426 1424 1424 1423
1477 1476 1474 1473 1472 1471 1471 1471 1471 1470 1469 1466 1464 1463 1462 1461 1460 1459 1458 1456 1455 1454 1454 1454 1455 1455 1455 1454 1454 1452 1451 1451 1450 1450 1449 1449 1448 1446 1444 1442 1441 1440 1438 1436 1433 1433 1431 1429 1428 1427 1425 1423 1421 1420
1478 1477 1475 1474 1474 1473 1474 1471 1471 1470 1469 1468 1466 1465 1465 1464 1464 1462 1460 1459 1456 1454 1453 1453 1453 1453 1452 1452 1452 1450 1449 1449 1449 1449 1448 1449 1446 1444 1443 1440 1439 1437 1436 1432 1431 1432 1430 1428 1426 1425 1423 1421 1419 1417
1477 1477 1476 1475 1474 1474 1473 1472 1472 1471 1470 1470 1470 1470 1468 1466 1466 1464 1463 1459 1455 1454 1452 1451 1451 1452 1453 1453 1452 1451 1450 1449 1447 1446 1446 1446 1445 1444 1441 1439 1438 1437 1435 1433 1430 1429 1427 1425 1424 1421 1419 1417 1414 1412
1479 1476 1476 1474 1474 1475 1473 1473 1472 1471 1471 1472 1472 1469 1468 1466 1465 1463 1461 1458 1456 1453 1453 1452 1453 1453 1453 1451 1450 1449 1449 1448 1447 1448 1446 1445 1444 1443 1440 1439 1437 1436 1434 1432 1429 1428 1425 1423 1420 1418 1416 1413 1410 1408
1477 1472 1471 1468 1472 1472 1470 1470 1471 1469 1470 1469 1467 1465 1467 1467 1463 1460 1458 1457 1457 1456 1456 1455 1455 1454 1453 1452 1451 1449 1449 1448 1448 1447 1446 1444 1442 1440 1439 1437 1435 1434 1432 1431 1428 1425 1422 1419 1416 1414 1411 1408 1405 1403
1471 1464 1461 1463 1466 1467 1467 1466 1464 1465 1463 1463 1461 1463 1464 1462 1465 1462 1458 1459 1456 1455 1456 1456 1457 1456 1455 1454 1453 1452 1450 1449 1448 1448 1447 1443 1441 1439 1437 1436 1434 1433 1430 1427 1425 1422 1418 1415 1413 1410 1407 1404 1401 1399
1464 1457 1455 1456 1456 1456 1453 1453 1453 1453 1451 1452 1454 1456 1458 1467 1466 1462 1460 1461 1460 1459 1460 1459 1459 1459 1457 1456 1454 1452 1451 1450 1448 1447 1445 1443 1440 1437 1435 1434 1432 1429 1426 1423 1420 1418 1416 1413 1411 1408 1405 1402 1400 1397
1461 1459 1457 1456 1454 1455 1456 1455 1455 1454 1454 1452 1456 1460 1461 1462 1463 1463 1462 1462 1461 1460 1459 1459 1459 1458 1456 1455 1453 1451 1449 1447 1444 1442 1440 1439 1437 1434 1432 1430 1428 1424 1420 1418 1416 1415 1413 1410 1407 1405 1403 1400 1397 1394
1462 1462 1460 1459 1459 1460 1460 1459 1458 1458 1459 1460 1460 1461 1462 1464 1464 1464 1463 1462 1462 1461 1460 1459 1458 1457 1456 1454 1453 1451 1449 1447 1444 1442 1439 1437 1435 1432 1429 1426 1423 1420 1418 1415 1413 1411 1409 1406 1404 1401 1399 1396 1394 1391
1466 1464 1463 1463 1462 1461 1461 1460 1459 1460 1461 1462 1462 1462 1464 1465 1466 1467 1466 1465 1464 1463 1462 1460 1459 1458 1456 1454 1452 1449 1447 1445 1442 1440 1437 1435 1432 1428 1425 1422 1420 1417 1414 1412 1410 1408 1404 1401 1399 1397 1395 1392 1390 1387
1466 1463 1463 1464 1463 1460 1460 1462 1460 1460 1462 1462 1463 1465 1468 1467 1468 1470 1468 1466 1464 1464 1464 1462 1460 1459 1457 1455 1452 1449 1446 1443 1440 1437 1434 1431 1427 1424 1421 1418 1415 1413 1410 1408 1406 1403 1400 1398 1395 1393 1390 1388 1386 1383
1467 1468 1469 1465 1461 1460 1460 1460 1460 1461 1462 1464 1466 1468 1467 1470 1469 1473 1472 1470 1467 1465 1464 1462 1461 1459 1457 1453 1449 1447 1443 1441 1438 1434 1431 1427 1424 1421 1418 1415 1412 1409 1406 1404 1402 1399 1397 1395 1392 1390 1387 1384 1381 1378